Location: Oshawa
(43.9000°N, 78.8670°W)
Time: 03:33:46
(UTC-04:00)

Amateur Radio Satellites - All Passes

Search period start: 02 July 2016 03:03
Search period end: 03 July 2016 03:03
Location: Oshawa, 43.9000°N, 78.8670°W

Satellite Date Start Highest point End Downlink Frequencies (MHz)
Time Altitude Azimuth
BEESAT 3 02 Jul 03:04:43 03:08:28 43° 310° (NW) 03:12:16 437.485
Cosmos 2504 02 Jul 03:22:45 03:29:18 24° 281° (WNW) 03:35:41 435.465 / 435.565
PCSat 02 Jul 03:23:51 03:28:40 32° 312° (NW) 03:33:31 145.827
Oscar 19 02 Jul 03:28:35 03:33:29 47° 290° (WNW) 03:38:23 437.125/150
AIST 2 02 Jul 03:29:33 03:30:35 11° 108° (ESE) 03:31:36 435.215
AO-7 02 Jul 03:32:29 03:37:53 18° 89° (E) 03:43:13 29.400- 29.500
O/OREOS (USA 219) 02 Jul 03:33:29 03:37:38 36° 300° (WNW) 03:41:47 437.305
BEESAT 2 02 Jul 03:50:40 03:54:09 29° 314° (NW) 03:57:40 435.950
AO-85 02 Jul 03:55:10 03:57:03 12° 28° (NNE) 03:58:53 145.980
SWISSCUBE 02 Jul 03:57:26 04:00:39 18° 269° (W) 04:03:52 437.505
ITAMSAT 1 02 Jul 03:59:16 04:04:26 55° 101° (E) 04:09:31 435.822/435.867
Cosmos 2499 02 Jul 04:02:23 04:06:03 13° 52° (NE) 04:09:39 435.465 / 435.565
Cosmos 2491 02 Jul 04:02:47 04:05:21 11° 309° (NW) 04:07:56 435.465 / 435.565
KKS-1 02 Jul 04:06:46 04:11:10 78° 75° (ENE) 04:15:37 437.445
Gurwin Techsat 1B 02 Jul 04:16:20 04:21:18 41° 292° (WNW) 04:26:16 435.225
AIST 1 02 Jul 04:21:56 04:26:13 83° 81° (E) 04:30:29
BEESAT 02 Jul 04:24:31 04:25:45 11° 272° (W) 04:27:00 436.000
MOZHAYETS 4 02 Jul 04:24:55 04:29:33 79° 256° (WSW) 04:34:14
CUBESAT XI-V 02 Jul 04:28:08 04:30:58 16° 62° (ENE) 04:33:48 437.345
STARS 02 Jul 04:28:23 04:32:42 67° 73° (ENE) 04:37:03 437.465
ITUPSAT 1 02 Jul 04:28:51 04:29:27 10° 272° (W) 04:30:03 437.325
GONETS M04 02 Jul 04:46:56 04:54:47 35° 69° (ENE) 05:02:36
AIST 2 02 Jul 05:04:19 05:08:26 78° 305° (NW) 05:12:35 435.215
HORYU 2 02 Jul 05:22:15 05:25:46 22° 94° (E) 05:29:16 437.375
AO-7 02 Jul 05:23:20 05:31:47 86° 108° (ESE) 05:40:09 29.400- 29.500
AO-85 02 Jul 05:34:09 05:38:40 54° 51° (NE) 05:42:48 145.980
ITAMSAT 1 02 Jul 05:39:35 05:43:29 22° 298° (WNW) 05:47:23 435.822/435.867
KKS-1 02 Jul 05:47:26 05:48:17 10° 271° (W) 05:49:09 437.445
Cosmos 2499 02 Jul 05:52:49 06:01:28 59° 76° (ENE) 06:09:32 435.465 / 435.565
CUBESAT XI-V 02 Jul 06:03:12 06:07:51 63° 259° (W) 06:12:31 437.345
STARS 02 Jul 06:07:49 06:09:31 12° 270° (W) 06:11:14 437.465
CUSAT 1 02 Jul 06:26:01 06:31:28 23° 89° (E) 06:36:12 437.405
Cubesat XI-IV 02 Jul 06:35:51 06:39:47 20° 92° (E) 06:43:41 437.490
PHONESAT 2.4 02 Jul 06:36:12 06:38:56 29° 166° (SSE) 06:41:40 2401.200-2431.200
GONETS M04 02 Jul 06:43:32 06:51:57 55° 270° (W) 07:00:24
AIST 2 02 Jul 06:45:37 06:47:37 13° 325° (NW) 06:49:39 435.215
HORYU 2 02 Jul 06:58:16 07:02:27 38° 291° (WNW) 07:06:37 437.375
NOAA 18 02 Jul 07:01:50 07:06:57 36° 98° (E) 07:12:02 137.9125
CUTE-I 02 Jul 07:08:08 07:13:11 39° 98° (E) 07:18:11 437.470
AO-85 02 Jul 07:15:46 07:18:36 17° 251° (WSW) 07:21:17 145.980
BRITE-PL 02 Jul 07:16:51 07:21:00 66° 101° (ESE) 07:25:13 437.365/2234.400
AO-7 02 Jul 07:17:12 07:23:37 25° 309° (NW) 07:30:01 29.400- 29.500
STRAND 1 02 Jul 07:22:01 07:27:05 63° 72° (ENE) 07:32:13 437.568
NOAA 15 02 Jul 07:23:07 07:28:22 72° 103° (ESE) 07:33:35 137.62
DANDE 02 Jul 07:23:20 07:30:40 36° 90° (E) 07:37:15 436.750
GOMX 1 02 Jul 07:29:53 07:33:55 40° 98° (E) 07:38:07 467.674
LilacSat-2 02 Jul 07:39:53 07:43:48 87° 106° (ESE) 07:47:42 437.200
Cosmos 2499 02 Jul 07:46:40 07:54:03 33° 278° (W) 08:01:04 435.465 / 435.565
CUSAT 1 02 Jul 08:05:48 08:13:15 69° 282° (WNW) 08:19:16 437.405
DOVE 4 02 Jul 08:09:38 08:13:55 50° 100° (E) 08:18:27 437.250
PHONESAT 2.4 02 Jul 08:12:19 08:15:15 43° 182° (S) 08:18:12 2401.200-2431.200
Cubesat XI-IV 02 Jul 08:14:56 08:20:12 57° 289° (WNW) 08:25:27 437.490
ISS 02 Jul 08:16:21 08:19:35 67° 146° (SE) 08:22:50 145.825
HO-68 02 Jul 08:18:10 08:23:54 25° 93° (E) 08:29:36 435.675
CANX-2 02 Jul 08:22:01 08:25:08 19° 92° (E) 08:28:13 2200.000
CINEMA 3 02 Jul 08:35:53 08:39:58 30° 96° (E) 08:44:12 145.822/145.860
SEEDS 02 Jul 08:37:50 08:40:45 18° 92° (E) 08:43:39 437.485
CUTE 1.7 + AOD 2 02 Jul 08:40:49 08:44:28 27° 95° (E) 08:48:04 437.475
NOAA 18 02 Jul 08:42:35 08:47:32 34° 295° (WNW) 08:52:28 137.9125
PCSat 02 Jul 08:44:40 08:46:46 12° 31° (NNE) 08:48:51 145.827
CUTE-I 02 Jul 08:48:27 08:53:05 30° 295° (WNW) 08:57:41 437.470
PRISM 02 Jul 08:54:03 08:58:11 84° 76° (ENE) 09:02:21 437.425
BRITE-PL 02 Jul 08:57:25 08:59:00 12° 298° (WNW) 09:00:37 437.365/2234.400
STRAND 1 02 Jul 09:03:25 09:06:42 17° 269° (W) 09:10:00 437.568
NOAA 15 02 Jul 09:04:14 09:07:33 17° 301° (WNW) 09:10:53 137.62
AAUSAT CUBESAT 2 02 Jul 09:05:06 09:08:10 20° 93° (E) 09:11:12 437.432
DANDE 02 Jul 09:05:09 09:13:18 55° 285° (WNW) 09:20:28 436.750
GOMX 1 02 Jul 09:08:44 09:11:49 20° 294° (WNW) 09:14:57 467.674
TIGRISAT 02 Jul 09:18:09 09:19:24 11° 59° (ENE) 09:20:39 435.000
UNISAT 6 02 Jul 09:23:40 09:25:51 14° 60° (ENE) 09:28:01 437.425
RS-15 02 Jul 09:30:38 09:33:45 11° 91° (E) 09:36:55 29.354- 29.394
CUBEBUG 2 02 Jul 09:42:01 09:46:30 45° 98° (E) 09:51:02 437.445
COMPASS 1 02 Jul 09:42:32 09:46:43 65° 101° (ESE) 09:50:50 437.405
BEESAT 3 02 Jul 09:43:26 09:46:30 21° 43° (NE) 09:49:33 437.485
DOVE 4 02 Jul 09:48:24 09:51:20 18° 295° (WNW) 09:54:20 437.250
PHONESAT 2.4 02 Jul 09:48:57 09:51:32 24° 198° (SSW) 09:54:05 2401.200-2431.200
ZACube-1 02 Jul 09:50:39 09:54:31 26° 94° (E) 09:58:21 437.345
AUBIESAT-1 02 Jul 09:52:08 09:55:10 20° 100° (E) 09:58:20 437.475
Oscar 11 02 Jul 09:52:34 09:56:17 27° 95° (E) 09:59:58 145.826/435.025
CUSAT 1 02 Jul 09:53:14 09:55:58 13° 297° (WNW) 09:58:32 437.405
ISS 02 Jul 09:53:21 09:56:15 28° 344° (NNW) 09:59:08 145.825
CANX-2 02 Jul 09:57:08 10:01:09 39° 289° (WNW) 10:05:07 2200.000
ANTELSAT 02 Jul 10:01:19 10:05:08 31° 68° (ENE) 10:09:03 437.575/2403.000
HO-68 02 Jul 10:05:00 10:12:09 67° 291° (WNW) 10:19:16 435.675
FUNcube-1 02 Jul 10:05:40 10:09:51 34° 96° (E) 10:14:02 145.935
Cosmos 2491 02 Jul 10:10:31 10:16:14 19° 58° (ENE) 10:21:56 435.465 / 435.565
SEEDS 02 Jul 10:12:39 10:16:39 41° 289° (WNW) 10:20:37 437.485
CINEMA 3 02 Jul 10:13:01 10:17:04 31° 291° (WNW) 10:21:14 145.822/145.860
CUTE 1.7 + AOD 2 02 Jul 10:16:34 10:20:16 29° 292° (WNW) 10:23:55 437.475
DELFI C3 02 Jul 10:17:18 10:20:24 21° 94° (E) 10:23:28 145.870
UWE-3 02 Jul 10:20:34 10:25:13 79° 102° (ESE) 10:29:53 435.000/436.395/437.385
PCSat 02 Jul 10:26:15 10:31:32 49° 53° (NE) 10:36:46 145.827
HUMSAT D 02 Jul 10:28:35 10:31:03 15° 90° (E) 10:33:30 437.325/437.525
BEESAT 2 02 Jul 10:29:17 10:32:52 31° 47° (NE) 10:36:26 435.950
POPSAT HIP 1 02 Jul 10:29:19 10:30:13 11° 60° (ENE) 10:31:08 437.405
M-CUBED/EXP-1 PRIME 02 Jul 10:34:21 10:38:20 69° 108° (ESE) 10:42:38 437.505
DUCHIFAT 1 02 Jul 10:37:59 10:39:35 12° 61° (ENE) 10:41:11 145.980
AAUSAT CUBESAT 2 02 Jul 10:39:56 10:43:46 36° 290° (WNW) 10:47:34 437.432
QB50P2 02 Jul 10:41:00 10:43:28 15° 63° (ENE) 10:45:57 145.880/145.840
POLYITAN 1 02 Jul 10:43:34 10:46:05 16° 63° (ENE) 10:48:37 437.675
TIGRISAT 02 Jul 10:51:02 10:55:22 85° 255° (WSW) 10:59:50 435.000
DANDE 02 Jul 10:54:40 10:57:27 12° 303° (WNW) 11:00:07 436.750
UNISAT 6 02 Jul 10:57:39 11:01:58 68° 259° (W) 11:06:25 437.425
JAS-2 02 Jul 11:12:40 11:17:03 17° 57° (ENE) 11:21:09 435.910
BUGSAT 1 02 Jul 11:15:59 11:17:57 13° 62° (ENE) 11:19:54 437.445
CUBEBUG 2 02 Jul 11:19:20 11:22:49 21° 295° (WNW) 11:26:22 437.445
COMPASS 1 02 Jul 11:19:49 11:21:44 13° 298° (WNW) 11:23:38 437.405
BEESAT 3 02 Jul 11:20:36 11:24:24 46° 241° (WSW) 11:28:11 437.485
AUBIESAT-1 02 Jul 11:25:57 11:29:43 40° 294° (WNW) 11:33:43 437.475
ZACube-1 02 Jul 11:26:41 11:30:49 34° 291° (WNW) 11:34:57 437.345
ESTCUBE 1 02 Jul 11:27:23 11:28:50 11° 89° (E) 11:30:15 437.505/2401.250
Oscar 11 02 Jul 11:28:36 11:32:23 29° 292° (WNW) 11:36:09 145.826/435.025
ISS 02 Jul 11:30:50 11:33:24 21° 4° (N) 11:35:58 145.825
RS-15 02 Jul 11:32:12 11:43:13 59° 113° (ESE) 11:54:51 29.354- 29.394
ANTELSAT 02 Jul 11:38:11 11:41:51 26° 266° (W) 11:45:36 437.575/2403.000
FUNcube-1 02 Jul 11:42:10 11:45:56 26° 293° (WNW) 11:49:43 145.935
AIST 2 02 Jul 11:46:56 11:49:33 16° 38° (NE) 11:52:09 435.215
CUBEBUG 1 02 Jul 11:49:17 11:51:14 13° 90° (E) 11:53:11 437.445
DELFI C3 02 Jul 11:51:46 11:55:19 31° 290° (WNW) 11:58:48 145.870
NANOSAT C BR1 02 Jul 11:52:02 11:56:12 77° 77° (ENE) 12:00:25 145.865
YUBILEINY 02 Jul 11:52:30 11:59:34 29° 81° (E) 12:06:41 435.215
HO-68 02 Jul 11:54:50 11:58:34 15° 311° (NW) 12:02:18 435.675
QB50P1 02 Jul 11:57:31 12:01:43 88° 256° (WSW) 12:05:57 145.935-145.965
UWE-3 02 Jul 11:58:55 12:01:04 13° 299° (WNW) 12:03:13 435.000/436.395/437.385
POPSAT HIP 1 02 Jul 12:01:10 12:05:21 82° 258° (WSW) 12:09:35 437.405
O/OREOS (USA 219) 02 Jul 12:02:22 12:06:49 58° 64° (ENE) 12:11:14 437.305
HUMSAT D 02 Jul 12:02:46 12:06:59 53° 287° (WNW) 12:11:10 437.325/437.525
Cosmos 2491 02 Jul 12:05:49 12:14:36 82° 82° (E) 12:23:20 435.465 / 435.565
BEESAT 2 02 Jul 12:07:13 12:10:39 28° 245° (WSW) 12:14:03 435.950
VELOX 1 02 Jul 12:07:41 12:10:46 19° 93° (E) 12:13:51 145.980
PCSat 02 Jul 12:10:12 12:14:39 26° 252° (WSW) 12:19:04 145.827
DUCHIFAT 1 02 Jul 12:10:33 12:14:42 71° 259° (WSW) 12:18:54 145.980
M-CUBED/EXP-1 PRIME 02 Jul 12:10:35 12:12:29 13° 302° (WNW) 12:14:26 437.505
QB50P2 02 Jul 12:14:44 12:18:50 53° 259° (W) 12:23:00 145.880/145.840
POLYITAN 1 02 Jul 12:17:23 12:21:29 52° 260° (W) 12:25:37 437.675
SPROUT 02 Jul 12:20:39 12:21:52 11° 89° (E) 12:23:04 437.525
Cosmos 2504 02 Jul 12:20:46 12:23:28 12° 70° (ENE) 12:26:12 435.465 / 435.565
UKube-1 02 Jul 12:25:59 12:28:54 18° 93° (E) 12:31:47 .
AISAT 02 Jul 12:48:10 12:52:28 51° 100° (E) 12:56:46 437.250
BUGSAT 1 02 Jul 12:48:55 12:52:52 57° 259° (W) 12:56:50 437.445
DX 1 02 Jul 12:53:05 12:57:13 42° 99° (E) 13:01:19 434.975-435.025
JAS-2 02 Jul 12:53:47 13:01:17 81° 73° (ENE) 13:08:00 435.910
50 SAT 02 Jul 12:58:29 13:02:11 76° 102° (ESE) 13:05:50 437.505
ESTCUBE 1 02 Jul 13:01:39 13:06:09 74° 286° (WNW) 13:10:37 437.505/2401.250
ISS 02 Jul 13:07:17 13:10:26 42° 24° (NNE) 13:13:34 145.825
Oscar 19 02 Jul 13:07:54 13:12:36 38° 68° (ENE) 13:17:19 437.125/150
CUBEBUG 1 02 Jul 13:23:39 13:27:55 62° 287° (WNW) 13:32:11 437.445
TISAT 1 02 Jul 13:24:16 13:26:29 14° 91° (E) 13:28:40 437.305
AIST 2 02 Jul 13:24:24 13:28:34 79° 238° (WSW) 13:32:43 435.215
ITAMSAT 1 02 Jul 13:42:17 13:45:01 14° 57° (ENE) 13:47:45 435.822/435.867
O/OREOS (USA 219) 02 Jul 13:43:14 13:45:42 15° 261° (W) 13:48:10 437.305
VELOX 1 02 Jul 13:43:16 13:47:26 44° 290° (WNW) 13:51:37 145.980
RS-15 02 Jul 13:44:49 13:56:01 51° 319° (NW) 14:07:50 29.354- 29.394
YUBILEINY 02 Jul 13:47:02 13:55:40 65° 282° (WNW) 14:04:25 435.215
SPROUT 02 Jul 13:54:00 13:58:17 71° 285° (WNW) 14:02:33 437.525
Gurwin Techsat 1B 02 Jul 13:58:57 14:04:03 50° 70° (ENE) 14:09:11 435.225
UKube-1 02 Jul 14:01:03 14:05:10 44° 289° (WNW) 14:09:16 .
Cosmos 2491 02 Jul 14:04:14 14:10:20 22° 282° (WNW) 14:16:27 435.465 / 435.565
Cosmos 2504 02 Jul 14:06:46 14:14:52 63° 91° (E) 14:23:30 435.465 / 435.565
SWISSCUBE 02 Jul 14:18:41 14:20:35 12° 89° (E) 14:22:29 437.505
SO-50 02 Jul 14:19:34 14:22:25 16° 109° (ESE) 14:25:17 436.795
AISAT 02 Jul 14:25:42 14:28:34 17° 297° (WNW) 14:31:25 437.250
DX 1 02 Jul 14:29:58 14:33:07 20° 296° (WNW) 14:36:16 434.975-435.025
AO-7 02 Jul 14:32:38 14:39:43 32° 55° (NE) 14:46:50 29.400- 29.500
JAS-2 02 Jul 14:41:38 14:46:48 20° 269° (W) 14:51:41 435.910
BEESAT 02 Jul 14:42:11 14:45:37 19° 92° (E) 14:49:02 436.000
ISS 02 Jul 14:43:53 14:46:48 30° 221° (SW) 14:49:43 145.825
ITUPSAT 1 02 Jul 14:46:02 14:49:39 21° 93° (E) 14:53:13 437.325
Oscar 19 02 Jul 14:47:37 14:51:59 28° 265° (W) 14:56:24 437.125/150
TISAT 1 02 Jul 14:58:20 15:02:28 55° 287° (WNW) 15:06:35 437.305
ITAMSAT 1 02 Jul 15:18:31 15:23:45 87° 255° (WSW) 15:29:02 435.822/435.867
Gurwin Techsat 1B 02 Jul 15:40:09 15:44:16 23° 267° (W) 15:48:25 435.225
YUBILEINY 02 Jul 15:50:14 15:54:32 14° 306° (NW) 15:58:52 435.215
SWISSCUBE 02 Jul 15:54:08 15:58:57 77° 285° (WNW) 16:03:43 437.505
SO-50 02 Jul 15:57:27 16:02:21 74° 307° (NW) 16:07:13 436.795
KKS-1 02 Jul 15:57:57 16:00:07 13° 90° (E) 16:02:17 437.445
Cosmos 2504 02 Jul 16:01:39 16:08:52 31° 294° (WNW) 16:16:29 435.465 / 435.565
RS-15 02 Jul 16:02:27 16:12:18 28° 352° (N) 16:22:26 29.354- 29.394
STARS 02 Jul 16:18:55 16:20:01 11° 89° (E) 16:21:05 437.465
BEESAT 02 Jul 16:19:03 16:23:41 49° 289° (WNW) 16:28:16 436.000
MOZHAYETS 4 02 Jul 16:19:13 16:22:50 22° 93° (E) 16:26:26
HORYU 2 02 Jul 16:21:37 16:25:14 25° 66° (ENE) 16:28:51 437.375
ITUPSAT 1 02 Jul 16:23:07 16:27:42 46° 290° (WNW) 16:32:16 437.325
AO-7 02 Jul 16:23:41 16:31:57 67° 255° (WSW) 16:40:18 29.400- 29.500
AIST 1 02 Jul 16:52:30 16:56:35 44° 93° (E) 17:00:41
NOAA 18 02 Jul 16:52:51 16:55:09 13° 54° (NE) 16:57:29 137.9125
BRITE-PL 02 Jul 16:54:26 16:55:38 11° 61° (ENE) 16:56:48 437.365/2234.400
CUTE-I 02 Jul 16:55:46 16:57:26 11° 55° (NE) 16:59:07 437.470
ITAMSAT 1 02 Jul 17:02:37 17:03:58 11° 273° (W) 17:05:18 435.822/435.867
NOAA 15 02 Jul 17:06:57 17:10:37 19° 60° (ENE) 17:14:15 137.62
KKS-1 02 Jul 17:32:41 17:37:06 63° 287° (WNW) 17:41:30 437.445
SWISSCUBE 02 Jul 17:35:10 17:35:53 10° 304° (NW) 17:36:37 437.505
SO-50 02 Jul 17:40:41 17:43:40 16° 327° (NNW) 17:46:38 436.795
GONETS M04 02 Jul 17:50:11 17:57:54 38° 85° (E) 18:05:38
STARS 02 Jul 17:52:28 17:56:52 76° 287° (WNW) 18:01:17 437.465
MOZHAYETS 4 02 Jul 17:55:48 18:00:09 40° 290° (WNW) 18:04:27
HORYU 2 02 Jul 17:57:35 18:01:37 34° 263° (W) 18:05:43 437.375
CUBESAT XI-V 02 Jul 17:58:41 18:02:42 28° 95° (E) 18:06:39 437.345
Cubesat XI-IV 02 Jul 17:58:50 18:03:44 38° 67° (ENE) 18:08:41 437.490
DANDE 02 Jul 18:04:36 18:07:05 14° 59° (ENE) 18:09:15 436.750
RS-15 02 Jul 18:18:44 18:29:41 36° 26° (NNE) 18:40:42 29.354- 29.394
LilacSat-2 02 Jul 18:23:00 18:26:39 50° 73° (ENE) 18:30:23 437.200
AO-7 02 Jul 18:23:13 18:26:16 12° 275° (W) 18:29:21 29.400- 29.500
BRITE-PL 02 Jul 18:28:39 18:33:33 89° 69° (ENE) 18:38:05 437.365/2234.400
NOAA 18 02 Jul 18:29:27 18:34:54 78° 74° (ENE) 18:40:26 137.9125
Cosmos 2499 02 Jul 18:29:57 18:37:51 46° 87° (E) 18:46:08 435.465 / 435.565
CUTE-I 02 Jul 18:31:12 18:36:32 73° 73° (ENE) 18:41:54 437.470
AIST 1 02 Jul 18:31:37 18:34:26 17° 291° (WNW) 18:37:15
GOMX 1 02 Jul 18:39:28 18:43:48 51° 73° (ENE) 18:47:56 467.674
CUSAT 1 02 Jul 18:41:14 18:44:36 81° 260° (W) 18:47:21 437.405
NOAA 15 02 Jul 18:44:39 18:49:53 64° 258° (WSW) 18:55:09 137.62
HO-68 02 Jul 18:49:09 18:54:32 24° 55° (NE) 18:59:55 435.675
CANX-2 02 Jul 19:16:29 19:19:21 18° 64° (ENE) 19:22:14 2200.000
DOVE 4 02 Jul 19:16:47 19:20:56 57° 74° (ENE) 19:25:00 437.250
SEEDS 02 Jul 19:31:21 19:33:59 16° 64° (ENE) 19:36:38 437.485
STRAND 1 02 Jul 19:32:04 19:35:44 19° 92° (E) 19:39:20 437.568
CUTE 1.7 + AOD 2 02 Jul 19:34:55 19:38:20 24° 67° (ENE) 19:41:47 437.475
CUBESAT XI-V 02 Jul 19:36:00 19:40:03 31° 292° (WNW) 19:44:04 437.345
Cubesat XI-IV 02 Jul 19:39:12 19:43:52 30° 265° (W) 19:48:35 437.490
CINEMA 3 02 Jul 19:39:25 19:42:59 28° 68° (ENE) 19:46:37 145.822/145.860
GONETS M04 02 Jul 19:46:05 19:54:28 51° 286° (WNW) 20:02:53
DANDE 02 Jul 19:46:18 19:50:31 41° 268° (W) 19:53:44 436.750
AO-85 02 Jul 19:50:41 19:53:55 16° 108° (ESE) 19:57:06 145.980
AAUSAT CUBESAT 2 02 Jul 19:57:06 19:59:49 17° 64° (ENE) 20:02:34 437.432
LilacSat-2 02 Jul 19:59:40 20:01:17 12° 270° (W) 20:02:53 437.200
NOAA 18 02 Jul 20:13:09 20:16:11 15° 270° (W) 20:19:14 137.9125
CUTE-I 02 Jul 20:14:01 20:17:08 16° 270° (W) 20:20:16 437.470
GOMX 1 02 Jul 20:19:36 20:22:10 15° 268° (W) 20:24:40 467.674
Cosmos 2499 02 Jul 20:23:00 20:31:00 44° 288° (WNW) 20:39:24 435.465 / 435.565
RS-15 02 Jul 20:31:54 20:44:20 82° 55° (NE) 20:56:38 29.354- 29.394
COMPASS 1 02 Jul 20:34:14 20:38:19 51° 73° (ENE) 20:42:25 437.405
HO-68 02 Jul 20:34:20 20:41:30 79° 255° (WSW) 20:48:44 435.675
AUBIESAT-1 02 Jul 20:40:08 20:42:52 24° 63° (ENE) 20:45:42 437.475
CUBEBUG 2 02 Jul 20:41:36 20:45:33 41° 71° (ENE) 20:49:38 437.445
ZACube-1 02 Jul 20:48:07 20:51:29 23° 66° (ENE) 20:54:56 437.345
Oscar 11 02 Jul 20:48:42 20:52:16 25° 67° (ENE) 20:55:51 145.826/435.025
CANX-2 02 Jul 20:50:43 20:54:51 47° 261° (W) 20:59:02 2200.000
DOVE 4 02 Jul 20:57:11 20:59:01 12° 270° (W) 21:00:50 437.250
FUNcube-1 02 Jul 21:02:38 21:06:21 30° 68° (ENE) 21:10:10 145.935
DELFI C3 02 Jul 21:05:07 21:07:42 17° 65° (ENE) 21:10:16 145.870
SEEDS 02 Jul 21:05:08 21:09:17 51° 261° (W) 21:13:28 437.485
CUTE 1.7 + AOD 2 02 Jul 21:10:07 21:14:00 33° 264° (W) 21:17:56 437.475
STRAND 1 02 Jul 21:10:12 21:15:15 56° 289° (WNW) 21:20:15 437.568
CINEMA 3 02 Jul 21:16:43 21:20:08 25° 266° (W) 21:23:37 145.822/145.860
UWE-3 02 Jul 21:18:47 21:22:58 72° 76° (ENE) 21:27:20 435.000/436.395/437.385
HUMSAT D 02 Jul 21:21:57 21:23:57 13° 61° (ENE) 21:25:59 437.325/437.525
M-CUBED/EXP-1 PRIME 02 Jul 21:23:04 21:26:18 70° 252° (WSW) 21:29:38 437.505
AO-85 02 Jul 21:28:25 21:33:51 81° 304° (NW) 21:39:06 145.980
AAUSAT CUBESAT 2 02 Jul 21:30:55 21:34:57 47° 261° (W) 21:39:02 437.432
GONETS M04 02 Jul 21:52:59 21:53:52 10° 311° (NW) 21:54:45
YUBILEINY 02 Jul 22:00:33 22:05:27 16° 55° (NE) 22:10:20 435.215
PRISM 02 Jul 22:09:25 22:13:30 72° 286° (WNW) 22:17:32 437.425
COMPASS 1 02 Jul 22:11:45 22:14:11 15° 270° (W) 22:16:36 437.405
AUBIESAT-1 02 Jul 22:14:58 22:17:24 19° 260° (W) 22:19:54 437.475
CUBEBUG 2 02 Jul 22:19:28 22:22:24 18° 269° (W) 22:25:24 437.445
ZACube-1 02 Jul 22:23:43 22:27:36 34° 264° (W) 22:31:35 437.345
Oscar 11 02 Jul 22:24:23 22:28:16 32° 264° (W) 22:32:11 145.826/435.025
HO-68 02 Jul 22:26:53 22:30:19 14° 273° (W) 22:33:48 435.675
ESTCUBE 1 02 Jul 22:28:03 22:30:25 14° 61° (ENE) 22:32:47 437.505/2401.250
DELFI C3 02 Jul 22:38:21 22:42:13 44° 262° (W) 22:46:06 145.870
FUNcube-1 02 Jul 22:39:04 22:42:36 25° 266° (W) 22:46:14 145.935
TIGRISAT 02 Jul 22:41:46 22:45:09 19° 92° (E) 22:48:31 435.000
RS-15 02 Jul 22:45:31 22:55:34 31° 257° (WSW) 23:05:32 29.354- 29.394
CUBEBUG 1 02 Jul 22:46:51 22:49:07 14° 61° (ENE) 22:51:22 437.445
SO-50 02 Jul 22:47:56 22:51:46 24° 40° (NE) 22:55:29 436.795
UNISAT 6 02 Jul 22:48:14 22:52:01 24° 94° (E) 22:55:48 437.425
HUMSAT D 02 Jul 22:54:51 22:59:02 65° 259° (W) 23:03:17 437.325/437.525
UWE-3 02 Jul 22:59:06 23:00:01 11° 273° (W) 23:00:55 435.000/436.395/437.385
VELOX 1 02 Jul 23:06:26 23:09:41 21° 65° (ENE) 23:12:57 145.980
AO-85 02 Jul 23:11:26 23:15:05 18° 324° (NW) 23:18:39 145.980
Cosmos 2491 02 Jul 23:15:45 23:21:18 19° 77° (ENE) 23:26:51 435.465 / 435.565
SPROUT 02 Jul 23:16:11 23:17:27 11° 60° (ENE) 23:18:44 437.525
UKube-1 02 Jul 23:22:01 23:25:02 19° 64° (ENE) 23:28:03 .
ANTELSAT 02 Jul 23:27:16 23:31:54 57° 100° (E) 23:36:31 437.575/2403.000
NANOSAT C BR1 02 Jul 23:37:22 23:38:38 11° 89° (E) 23:39:53 145.865
50 SAT 02 Jul 23:37:25 23:40:55 40° 71° (ENE) 23:44:26 437.505
QB50P1 02 Jul 23:42:22 23:44:33 14° 90° (E) 23:46:43 145.935-145.965
POPSAT HIP 1 02 Jul 23:45:51 23:48:16 15° 91° (E) 23:50:42 437.405
AISAT 02 Jul 23:46:38 23:50:55 54° 72° (ENE) 23:55:12 437.250
DX 1 02 Jul 23:49:44 23:53:50 43° 70° (ENE) 23:57:57 434.975-435.025
DUCHIFAT 1 02 Jul 23:54:18 23:57:01 16° 92° (E) 23:59:43 145.980
YUBILEINY 02 Jul 23:55:18 00:04:10 70° 79° (E) 00:12:57 435.215
Cosmos 2504 02 Jul 23:58:17 00:05:33 27° 64° (ENE) 00:12:31 435.465 / 435.565
QB50P2 02 Jul 23:58:43 00:02:03 22° 94° (E) 00:05:22 145.880/145.840
POLYITAN 1 03 Jul 00:01:19 00:04:42 22° 94° (E) 00:08:04 437.675
ESTCUBE 1 03 Jul 00:02:09 00:06:40 69° 258° (WSW) 00:11:13 437.505/2401.250
TIGRISAT 03 Jul 00:17:33 00:22:03 48° 289° (WNW) 00:26:34 435.000
TISAT 1 03 Jul 00:17:55 00:19:55 13° 61° (ENE) 00:21:56 437.305
CUBEBUG 1 03 Jul 00:20:35 00:24:53 64° 258° (WSW) 00:29:12 437.445
UNISAT 6 03 Jul 00:24:29 00:28:49 39° 290° (WNW) 00:33:11 437.425
SO-50 03 Jul 00:28:00 00:32:34 55° 240° (WSW) 00:36:58 436.795
BUGSAT 1 03 Jul 00:29:57 00:32:48 18° 93° (E) 00:35:39 437.445
VELOX 1 03 Jul 00:41:43 00:45:53 41° 261° (W) 00:50:04 145.980
SPROUT 03 Jul 00:48:32 00:52:46 79° 259° (WSW) 00:57:03 437.525
UKube-1 03 Jul 00:56:39 01:00:46 44° 261° (W) 01:04:54 .
ANTELSAT 03 Jul 01:05:05 01:08:10 18° 297° (WNW) 01:11:15 437.575/2403.000
Cosmos 2491 03 Jul 01:08:05 01:16:52 89° 97° (E) 01:25:39 435.465 / 435.565
PCSat 03 Jul 01:09:39 01:14:25 32° 110° (ESE) 01:19:12 145.827
NANOSAT C BR1 03 Jul 01:10:34 01:14:49 69° 285° (WNW) 01:19:02 145.865
50 SAT 03 Jul 01:12:41 01:14:47 14° 268° (W) 01:16:55 437.505
BEESAT 3 03 Jul 01:13:10 01:15:58 19° 112° (ESE) 01:18:49 437.485
QB50P1 03 Jul 01:16:29 01:20:41 57° 287° (WNW) 01:24:52 145.935-145.965
POPSAT HIP 1 03 Jul 01:20:12 01:24:22 52° 288° (WNW) 01:28:32 437.405
Oscar 19 03 Jul 01:20:17 01:21:46 11° 87° (E) 01:23:15 437.125/150
AISAT 03 Jul 01:25:11 01:27:43 15° 269° (W) 01:30:16 437.250
SWISSCUBE 03 Jul 01:25:56 01:29:11 18° 62° (ENE) 01:32:25 437.505
DX 1 03 Jul 01:27:14 01:30:14 18° 267° (W) 01:33:15 434.975-435.025
DUCHIFAT 1 03 Jul 01:28:52 01:32:57 46° 288° (WNW) 01:37:01 145.980
QB50P2 03 Jul 01:34:02 01:37:57 35° 290° (WNW) 01:41:50 145.880/145.840
POLYITAN 1 03 Jul 01:36:41 01:40:34 35° 291° (WNW) 01:44:28 437.675
JAS-2 03 Jul 01:47:43 01:53:09 59° 100° (E) 01:58:16 435.910
BEESAT 03 Jul 01:49:43 01:53:42 27° 65° (ENE) 01:57:43 436.000
TISAT 1 03 Jul 01:50:57 01:55:04 62° 259° (WSW) 01:59:13 437.305
Cosmos 2504 03 Jul 01:51:00 01:59:51 74° 266° (W) 02:08:13 435.465 / 435.565
YUBILEINY 03 Jul 01:53:12 02:00:09 27° 279° (W) 02:07:07 435.215
ITUPSAT 1 03 Jul 01:53:55 01:58:02 29° 66° (ENE) 02:02:09 437.325
BEESAT 2 03 Jul 01:59:56 02:03:29 33° 116° (ESE) 02:07:05 435.950
BUGSAT 1 03 Jul 02:04:29 02:08:21 40° 289° (WNW) 02:12:15 437.445
Gurwin Techsat 1B 03 Jul 02:14:45 02:18:14 17° 90° (E) 02:21:42 435.225
O/OREOS (USA 219) 03 Jul 02:15:55 02:20:16 52° 108° (ESE) 02:24:37 437.305
BEESAT 3 03 Jul 02:49:39 02:53:23 41° 310° (NW) 02:57:09 437.485
PCSat 03 Jul 02:52:35 02:57:41 41° 309° (NW) 03:02:50 145.827
KKS-1 03 Jul 02:57:26 03:00:04 16° 62° (ENE) 03:02:43 437.445
AIST 1 03 Jul 02:59:19 03:01:25 13° 67° (ENE) 03:03:31
